Location: Eymir
(36.7333°N, 29.7833°E)
Time: 17:54:40
(UTC+00:00)

IRS-1D - Pass Details

Date: 14 January 2026
Orbit: 737 x 810 km, 98.8° (Epoch: 17 February)

Event Time Altitude Azimuth Distance (km) Brightness Sun altitude
Rises 02:38:24 0° 19° (NNE) 3,330 7.0 -30.5°
Reaches altitude 10° 02:40:49 10° 25° (NNE) 2,399 6.2 -30.0°
Maximum altitude 02:45:59 51° 100° (E) 1,018 4.4 -29.0°
Drops below altitude 10° 02:51:06 10° 176° (S) 2,381 6.1 -28.0°
Sets 02:53:29 0° 181° (S) 3,303 6.9 -27.5°
